Weather History for V.C. Bird, Antigua

Change the Weather History Date:

Tuesday, March 18, 2014

  Actual Average Record
Temperature  
Mean Temperature 80 °F -  
Max Temperature 84 °F 82 °F 86 °F (1998)
Min Temperature 75 °F 73 °F 69 °F (2011)
Cooling Degree Days 14    
Growing Degree Days 30 (Base 50)    
Moisture  
Dew Point 68 °F    
Average Humidity 67    
Maximum Humidity 74    
Minimum Humidity 55    
Precipitation  
Precipitation 0.00 in - - ()
Sea Level Pressure  
Sea Level Pressure 30.02 in    
Wind  
Wind Speed 8 mph ()    
Max Wind Speed 13 mph    
Max Gust Speed -    
Visibility 9.2 miles    
Events      
Averages and records for this station are not official NWS values.
T = Trace of Precipitation, MM = Missing Value Source: Averaged Metar Reports

Daily Weather History Graph

Daily Weather History Graph

Search for Another Location

Airport:

Trip Planner

Search our weather history database for the weather conditions in past years. The results will help you decide how hot, cold, wet, or windy it might be!

Date:

Astronomy

Mar. 18, 2014 Rise Set
Actual Time 6:12 AM AST 6:17 PM AST
Civil Twilight 5:51 AM AST 6:39 PM AST
Nautical Twilight 5:26 AM AST 7:04 PM AST
Astronomical Twilight 5:00 AM AST 7:29 PM AST
Moon 8:06 PM AST (3/18) 7:18 AM AST (3/18)
Length of Visible Light 12h 48m
Length of Day
12h 04m
Waning Gibbous, 96% of the Moon is Illuminated
Mar 18
Waning Gibbous
Mar 23
Last Quarter
Mar 30
New
Apr 7
First Quarter
Apr 15
Full

Hourly Weather History & Observations

Time (AST) Temp. Heat Index Dew Point Humidity Pressure Visibility Wind Dir Wind Speed Gust Speed Precip Events Conditions
12:00 AM 77.0 °F - 68.0 °F 74% 30.01 in 6.2 mi East 8.1 mph - N/A   Partly Cloudy
1:00 AM 77.0 °F - 66.2 °F 69% 30.01 in 6.2 mi East 9.2 mph - N/A   Partly Cloudy
3:00 AM 77.0 °F - 66.2 °F 69% 29.98 in 6.2 mi East 8.1 mph - N/A   Partly Cloudy
4:00 AM 77.0 °F - 66.2 °F 69% 29.98 in 6.2 mi East 9.2 mph - N/A   Partly Cloudy
5:00 AM 76 °F - 66 °F 64% 30.00 in 19 mi East 9.2 mph - -   Partly Cloudy
5:00 AM 77.0 °F - 66.2 °F 69% 29.98 in 6.2 mi East 9.2 mph - N/A   Scattered Clouds
6:00 AM 77.0 °F - 68.0 °F 74% 30.01 in 6.2 mi East 9.2 mph - N/A   Scattered Clouds
7:00 AM 78.8 °F - 68.0 °F 69% 30.01 in 6.2 mi East 9.2 mph - N/A   Scattered Clouds
8:00 AM 80 °F - 70 °F 63% 30.05 in 19 mi East 9.2 mph - -   Partly Cloudy
8:00 AM 78.8 °F - 69.8 °F 74% 30.04 in 6.2 mi East 9.2 mph - N/A   Scattered Clouds
9:00 AM 80.6 °F 83.2 °F 68.0 °F 65% 30.06 in 6.2 mi East 10.4 mph - N/A   Mostly Cloudy
10:00 AM 82.4 °F 85.4 °F 68.0 °F 62% 30.06 in 6.2 mi ESE 10.4 mph - N/A   Scattered Clouds
11:00 AM 82 °F - 68 °F 55% 30.07 in 19 mi ESE 11.5 mph - -   Partly Cloudy
11:00 AM 82.4 °F 85.4 °F 68.0 °F 62% 30.06 in 6.2 mi ESE 11.5 mph - N/A   Scattered Clouds
12:00 PM 82.4 °F 86.3 °F 69.8 °F 66% 30.04 in 6.2 mi East 12.7 mph - N/A   Mostly Cloudy
1:00 PM 82.4 °F 85.4 °F 68.0 °F 62% 30.01 in 6.2 mi East 11.5 mph - N/A   Scattered Clouds
2:00 PM 81 °F - 68 °F 57% 30.01 in 19 mi East 12.7 mph - -   Mostly Cloudy
2:00 PM 80.6 °F 83.2 °F 68.0 °F 65% 30.01 in 6.2 mi East 12.7 mph - N/A   Mostly Cloudy
3:00 PM 82.4 °F 85.4 °F 68.0 °F 62% 29.98 in 6.2 mi ESE 11.5 mph - N/A   Scattered Clouds
4:00 PM 80.6 °F 83.2 °F 68.0 °F 65% 29.98 in 6.2 mi East 10.4 mph - N/A   Scattered Clouds
5:00 PM 80 °F - 69 °F 62% 29.99 in 19 mi East 8.1 mph - -   Mostly Cloudy
5:00 PM 80.6 °F 83.9 °F 69.8 °F 70% 29.98 in 6.2 mi East 8.1 mph - N/A   Mostly Cloudy
6:00 PM 78.8 °F - 69.8 °F 74% 30.01 in 6.2 mi East 6.9 mph - N/A   Scattered Clouds
7:00 PM 77.0 °F - 68.0 °F 74% 30.01 in 6.2 mi East 6.9 mph - N/A   Scattered Clouds
8:00 PM 78 °F - 68 °F 65% 30.04 in 19 mi ESE 5.8 mph - -   Scattered Clouds
8:00 PM 77.0 °F - 68.0 °F 74% 30.04 in 6.2 mi ESE 5.8 mph - N/A   Partly Cloudy
9:00 PM 77.0 °F - 68.0 °F 74% 30.04 in 6.2 mi ESE 5.8 mph - N/A   Partly Cloudy
10:00 PM 77.0 °F - 68.0 °F 74% 30.04 in 6.2 mi ESE 4.6 mph - N/A   Scattered Clouds
11:00 PM 77 °F - 69 °F 68% 30.08 in 19 mi East 5.8 mph - -   Partly Cloudy
11:00 PM 77.0 °F - 68.0 °F 74% 30.06 in 6.2 mi East 5.8 mph - N/A   Scattered Clouds